User: anonymous   Login
Location: Casco Volunteer Fire Department
(44.5576°N, 87.6146°W)
Time: 06:23:30
(UTC+00:00)
Language:

COSMOS 2455 - Orbit

View from above orbital plane
View from above orbital plane
View from above satellite
View from above satellite

Ground track
Ground track

The orbit is defined by the following mean orbital elements,

1 36095U          26065.62762727 +.00000000 +00000-0 +74365-4 0 00003
2 36095  67.1477 142.3243 0006474 244.9108 115.1305 13.97040448    01
Epoch (UTC): 06 March 2026 15:03:46
Eccentricity: 0.0006474
inclination: 67.1477°
perigee height: 899 km
apogee height: 909 km
right ascension of ascending node: 142.3243°
argument of perigee: 244.9108°
revolutions per day: 13.97040448
mean anomaly at epoch: 115.1305°

The dashed part of the orbit path shows where the satellite is in the earth's shadow,  

DLR